Location: Courcelles
(49.2596°N, 1.7419°E)
Time: 21:05:46
(UTC+00:00)

Cosmos 1725 Rocket - Pass Details

Date: 17 November 2025
Orbit: 962 x 989 km, 82.9° (Epoch: 05 December)

Event Time Altitude Azimuth Distance (km) Brightness Sun altitude
Rises 17:00:49 0° 194° (SSW) 3,668 7.5 -8.6°
Reaches altitude 10° 17:03:19 10° 197° (SSW) 2,728 6.9 -8.9°
Maximum altitude 17:09:34 72° 281° (W) 1,038 4.4 -9.9°
Drops below altitude 10° 17:15:54 10° 6° (N) 2,760 6.1 -10.9°
Sets 17:18:28 0° 9° (N) 3,714 6.8 -11.3°
